Year,Month,Day,Hour,Minute,Value (Times are PST for windgust in km/hr)
2015,09,12,00,00,4.80
2015,09,12,00,01,3.20
2015,09,12,00,02,1.60
2015,09,12,00,03,1.60
2015,09,12,00,06,1.60
2015,09,12,00,07,1.60
2015,09,12,00,08,1.60
2015,09,12,00,09,3.20
2015,09,12,00,10,3.20
2015,09,12,00,11,3.20
2015,09,12,00,12,4.80
2015,09,12,00,13,4.80
2015,09,12,00,14,4.80
2015,09,12,00,15,3.20
2015,09,12,00,16,1.60
2015,09,12,00,17,1.60
2015,09,12,00,18,3.20
2015,09,12,00,19,1.60
2015,09,12,00,25,1.60
2015,09,12,00,26,3.20
2015,09,12,00,27,3.20
2015,09,12,00,28,3.20
2015,09,12,00,29,4.80
2015,09,12,00,30,4.80
2015,09,12,00,31,4.80
2015,09,12,00,32,4.80
2015,09,12,00,33,4.80
2015,09,12,00,34,3.20
2015,09,12,00,35,3.20
2015,09,12,00,36,3.20
2015,09,12,00,37,4.80
2015,09,12,00,38,3.20
2015,09,12,00,39,3.20
2015,09,12,00,40,3.20
2015,09,12,00,41,1.60
2015,09,12,00,42,1.60
2015,09,12,00,43,3.20
2015,09,12,00,44,4.80
2015,09,12,00,45,4.80
2015,09,12,00,46,6.40
2015,09,12,00,47,6.40
2015,09,12,00,48,6.40
2015,09,12,00,49,4.80
2015,09,12,00,50,4.80
2015,09,12,00,51,3.20
2015,09,12,00,52,3.20
2015,09,12,00,53,3.20
2015,09,12,00,54,4.80
2015,09,12,00,55,6.40
2015,09,12,00,56,8.10
2015,09,12,00,57,9.60
2015,09,12,00,58,8.10
2015,09,12,00,59,9.60
2015,09,12,01,00,6.40
2015,09,12,01,01,6.40
2015,09,12,01,02,4.80
2015,09,12,01,03,4.80
2015,09,12,01,04,4.80
2015,09,12,01,05,3.20
2015,09,12,01,06,4.80
2015,09,12,01,07,3.20
2015,09,12,01,08,1.60
2015,09,12,01,09,1.60
2015,09,12,01,10,3.20
2015,09,12,01,11,4.80
2015,09,12,01,12,6.40
2015,09,12,01,13,8.10
2015,09,12,01,14,6.40
2015,09,12,01,15,4.80
2015,09,12,01,16,4.80
2015,09,12,01,17,4.80
2015,09,12,01,18,3.20
2015,09,12,01,19,3.20
2015,09,12,01,20,3.20
2015,09,12,01,21,4.80
2015,09,12,01,22,3.20
2015,09,12,01,23,3.20
2015,09,12,01,24,3.20
2015,09,12,01,25,3.20
2015,09,12,01,26,3.20
2015,09,12,01,27,4.80
2015,09,12,01,28,4.80
2015,09,12,01,29,4.80
2015,09,12,01,30,4.80
2015,09,12,01,31,6.40
2015,09,12,01,32,3.20
2015,09,12,01,33,3.20
2015,09,12,01,34,3.20
2015,09,12,01,35,1.60
2015,09,12,01,36,1.60
2015,09,12,01,37,4.80
2015,09,12,01,38,3.20
2015,09,12,01,39,1.60
2015,09,12,01,40,3.20
2015,09,12,01,41,4.80
2015,09,12,01,42,6.40
2015,09,12,01,43,6.40
2015,09,12,01,44,4.80
2015,09,12,01,45,6.40
2015,09,12,01,46,6.40
2015,09,12,01,47,3.20
2015,09,12,01,48,1.60
2015,09,12,01,53,1.60
2015,09,12,01,54,3.20
2015,09,12,01,55,3.20
2015,09,12,01,56,3.20
2015,09,12,01,57,1.60
2015,09,12,01,58,3.20
2015,09,12,01,59,3.20
2015,09,12,02,00,4.80
2015,09,12,02,01,4.80
2015,09,12,02,02,4.80
2015,09,12,02,03,4.80
2015,09,12,02,04,4.80
2015,09,12,02,05,3.20
2015,09,12,02,06,1.60
2015,09,12,02,07,1.60
2015,09,12,02,09,1.60
2015,09,12,02,10,1.60
2015,09,12,02,13,1.60
2015,09,12,02,14,3.20
2015,09,12,02,15,3.20
2015,09,12,02,16,1.60
2015,09,12,02,17,3.20
2015,09,12,02,18,3.20
2015,09,12,02,19,3.20
2015,09,12,02,20,4.80
2015,09,12,02,21,4.80
2015,09,12,02,22,4.80
2015,09,12,02,23,3.20
2015,09,12,02,24,3.20
2015,09,12,02,25,3.20
2015,09,12,02,26,3.20
2015,09,12,02,27,3.20
2015,09,12,02,28,1.60
2015,09,12,02,29,1.60
2015,09,12,02,30,1.60
2015,09,12,02,31,1.60
2015,09,12,02,32,1.60
2015,09,12,02,33,1.60
2015,09,12,02,34,1.60
2015,09,12,02,35,3.20
2015,09,12,02,36,3.20
2015,09,12,02,37,4.80
2015,09,12,02,38,4.80
2015,09,12,02,39,3.20
2015,09,12,02,40,4.80
2015,09,12,02,41,4.80
2015,09,12,02,42,3.20
2015,09,12,02,43,4.80
2015,09,12,02,44,4.80
2015,09,12,02,45,4.80
2015,09,12,02,46,4.80
2015,09,12,02,47,3.20
2015,09,12,02,48,1.60
2015,09,12,02,49,3.20
2015,09,12,02,50,1.60
2015,09,12,02,51,1.60
2015,09,12,02,52,1.60
2015,09,12,02,53,3.20
2015,09,12,02,54,3.20
2015,09,12,02,55,1.60
2015,09,12,02,56,3.20
2015,09,12,02,57,4.80
2015,09,12,02,58,4.80
2015,09,12,02,59,4.80
2015,09,12,03,00,4.80
2015,09,12,03,01,3.20
2015,09,12,03,02,3.20
2015,09,12,03,03,3.20
2015,09,12,03,04,1.60
2015,09,12,03,05,1.60
2015,09,12,03,07,1.60
2015,09,12,03,08,4.80
2015,09,12,03,09,6.40
2015,09,12,03,10,6.40
2015,09,12,03,11,4.80
2015,09,12,03,12,3.20
2015,09,12,03,13,1.60
2015,09,12,03,14,3.20
2015,09,12,03,15,3.20
2015,09,12,03,16,3.20
2015,09,12,03,17,4.80
2015,09,12,03,18,4.80
2015,09,12,03,19,4.80
2015,09,12,03,20,4.80
2015,09,12,03,21,4.80
2015,09,12,03,22,3.20
2015,09,12,03,23,1.60
2015,09,12,03,24,3.20
2015,09,12,03,25,1.60
2015,09,12,03,26,1.60
2015,09,12,03,27,1.60
2015,09,12,03,28,3.20
2015,09,12,03,29,3.20
2015,09,12,03,30,3.20
2015,09,12,03,31,1.60
2015,09,12,03,32,1.60
2015,09,12,03,33,1.60
2015,09,12,03,34,1.60
2015,09,12,03,35,1.60
2015,09,12,03,36,1.60
2015,09,12,03,37,1.60
2015,09,12,03,38,3.20
2015,09,12,03,39,4.80
2015,09,12,03,40,4.80
2015,09,12,03,41,3.20
2015,09,12,03,42,3.20
2015,09,12,03,43,3.20
2015,09,12,03,44,1.60
2015,09,12,03,45,1.60
2015,09,12,03,46,3.20
2015,09,12,03,47,3.20
2015,09,12,03,48,3.20
2015,09,12,03,49,4.80
2015,09,12,03,50,4.80
2015,09,12,03,51,3.20
2015,09,12,03,52,3.20
2015,09,12,03,53,3.20
2015,09,12,03,54,3.20
2015,09,12,03,55,1.60
2015,09,12,03,57,1.60
2015,09,12,03,58,1.60
2015,09,12,03,59,4.80
2015,09,12,04,00,4.80
2015,09,12,04,01,6.40
2015,09,12,04,02,6.40
2015,09,12,04,03,6.40
2015,09,12,04,04,3.20
2015,09,12,04,05,1.60
2015,09,12,04,06,1.60
2015,09,12,04,07,1.60
2015,09,12,04,08,3.20
2015,09,12,04,09,3.20
2015,09,12,04,10,3.20
2015,09,12,04,11,3.20
2015,09,12,04,12,1.60
2015,09,12,04,13,3.20
2015,09,12,04,14,3.20
2015,09,12,04,15,3.20
2015,09,12,04,16,3.20
2015,09,12,04,17,4.80
2015,09,12,04,18,4.80
2015,09,12,04,19,4.80
2015,09,12,04,20,4.80
2015,09,12,04,21,6.40
2015,09,12,04,22,6.40
2015,09,12,04,23,1.60
2015,09,12,04,24,1.60
2015,09,12,04,28,3.20
2015,09,12,04,29,3.20
2015,09,12,04,30,1.60
2015,09,12,04,31,3.20
2015,09,12,04,32,3.20
2015,09,12,04,33,6.40
2015,09,12,04,34,6.40
2015,09,12,04,35,4.80
2015,09,12,04,36,6.40
2015,09,12,04,37,6.40
2015,09,12,04,38,6.40
2015,09,12,04,39,4.80
2015,09,12,04,40,6.40
2015,09,12,04,41,4.80
2015,09,12,04,42,4.80
2015,09,12,04,43,4.80
2015,09,12,04,44,4.80
2015,09,12,04,45,6.40
2015,09,12,04,46,4.80
2015,09,12,04,47,3.20
2015,09,12,04,48,3.20
2015,09,12,04,49,6.40
2015,09,12,04,50,4.80
2015,09,12,04,51,4.80
2015,09,12,04,52,3.20
2015,09,12,04,53,4.80
2015,09,12,04,54,4.80
2015,09,12,04,55,6.40
2015,09,12,04,56,8.10
2015,09,12,04,57,8.10
2015,09,12,04,58,6.40
2015,09,12,04,59,4.80
2015,09,12,05,00,1.60
2015,09,12,05,01,1.60
2015,09,12,05,03,1.60
2015,09,12,05,04,1.60
2015,09,12,05,09,1.60
2015,09,12,05,10,3.20
2015,09,12,05,11,1.60
2015,09,12,05,12,3.20
2015,09,12,05,13,3.20
2015,09,12,05,14,3.20
2015,09,12,05,15,3.20
2015,09,12,05,16,4.80
2015,09,12,05,17,4.80
2015,09,12,05,18,4.80
2015,09,12,05,19,3.20
2015,09,12,05,20,1.60
2015,09,12,05,21,1.60
2015,09,12,05,22,1.60
2015,09,12,05,23,1.60
2015,09,12,05,24,3.20
2015,09,12,05,25,3.20
2015,09,12,05,26,3.20
2015,09,12,05,27,3.20
2015,09,12,05,28,3.20
2015,09,12,05,29,1.60
2015,09,12,05,30,1.60
2015,09,12,05,31,1.60
2015,09,12,05,32,3.20
2015,09,12,05,33,1.60
2015,09,12,05,34,1.60
2015,09,12,05,35,1.60
2015,09,12,05,36,1.60
2015,09,12,05,37,1.60
2015,09,12,05,38,1.60
2015,09,12,05,40,1.60
2015,09,12,05,41,1.60
2015,09,12,05,42,1.60
2015,09,12,05,43,3.20
2015,09,12,05,44,3.20
2015,09,12,05,45,3.20
2015,09,12,05,46,1.60
2015,09,12,05,47,3.20
2015,09,12,05,48,1.60
2015,09,12,05,49,3.20
2015,09,12,05,50,3.20
2015,09,12,05,51,4.80
2015,09,12,05,52,3.20
2015,09,12,05,53,3.20
2015,09,12,06,48,3.20
2015,09,12,06,49,4.80
2015,09,12,06,50,4.80
2015,09,12,06,51,4.80
2015,09,12,06,52,6.40
2015,09,12,06,53,8.10
2015,09,12,06,54,8.10
2015,09,12,06,55,8.10
2015,09,12,06,56,8.10
2015,09,12,06,57,6.40
2015,09,12,06,58,6.40
2015,09,12,06,59,6.40
2015,09,12,07,00,4.80
2015,09,12,07,01,3.20
2015,09,12,07,02,3.20
2015,09,12,07,03,3.20
2015,09,12,07,04,1.60
2015,09,12,07,19,6.40
2015,09,12,07,20,4.80
2015,09,12,07,21,3.20
2015,09,12,07,22,3.20
2015,09,12,07,23,6.40
2015,09,12,07,24,4.80
2015,09,12,07,25,4.80
2015,09,12,07,26,4.80
2015,09,12,07,27,4.80
2015,09,12,07,28,1.60
2015,09,12,07,29,1.60
2015,09,12,07,31,3.20
2015,09,12,07,32,3.20
2015,09,12,07,33,3.20
2015,09,12,07,34,3.20
2015,09,12,07,35,3.20
2015,09,12,07,36,3.20
2015,09,12,07,37,1.60
2015,09,12,07,42,1.60
2015,09,12,07,43,3.20
2015,09,12,07,44,3.20
2015,09,12,07,45,4.80
2015,09,12,07,46,3.20
2015,09,12,07,47,3.20
2015,09,12,07,48,3.20
2015,09,12,07,49,4.80
2015,09,12,07,50,3.20
2015,09,12,07,51,4.80
2015,09,12,07,52,4.80
2015,09,12,07,53,4.80
2015,09,12,07,54,4.80
2015,09,12,07,55,6.40
2015,09,12,07,56,6.40
2015,09,12,07,57,4.80
2015,09,12,07,58,6.40
2015,09,12,07,59,8.10
2015,09,12,08,00,8.10
2015,09,12,08,01,8.10
2015,09,12,08,02,4.80
2015,09,12,08,03,4.80
2015,09,12,08,04,4.80
2015,09,12,08,05,4.80
2015,09,12,08,06,4.80
2015,09,12,08,07,3.20
2015,09,12,08,08,4.80
2015,09,12,08,09,4.80
2015,09,12,08,10,3.20
2015,09,12,08,11,3.20
2015,09,12,08,12,3.20
2015,09,12,08,13,3.20
2015,09,12,08,14,3.20
2015,09,12,08,15,1.60
2015,09,12,08,16,3.20
2015,09,12,08,17,3.20
2015,09,12,08,18,3.20
2015,09,12,08,19,1.60
2015,09,12,08,20,1.60
2015,09,12,08,22,1.60
2015,09,12,08,23,1.60
2015,09,12,08,24,3.20
2015,09,12,08,25,3.20
2015,09,12,08,26,3.20
2015,09,12,08,27,3.20
2015,09,12,08,28,1.60
2015,09,12,08,29,1.60
2015,09,12,08,30,1.60
2015,09,12,08,31,1.60
2015,09,12,08,32,1.60
2015,09,12,08,33,1.60
2015,09,12,08,34,3.20
2015,09,12,08,35,1.60
2015,09,12,08,36,3.20
2015,09,12,08,37,3.20
2015,09,12,08,38,3.20
2015,09,12,08,39,3.20
2015,09,12,08,40,4.80
2015,09,12,08,41,4.80
2015,09,12,08,42,3.20
2015,09,12,08,43,4.80
2015,09,12,08,44,3.20
2015,09,12,08,45,1.60
2015,09,12,08,46,1.60
2015,09,12,08,48,4.80
2015,09,12,08,49,4.80
2015,09,12,08,50,3.20
2015,09,12,08,51,1.60
2015,09,12,08,52,3.20
2015,09,12,08,53,3.20
2015,09,12,08,54,3.20
2015,09,12,08,55,3.20
2015,09,12,08,56,1.60
2015,09,12,08,57,1.60
2015,09,12,08,58,1.60
2015,09,12,08,59,1.60
2015,09,12,09,00,3.20
2015,09,12,09,01,3.20
2015,09,12,09,02,3.20
2015,09,12,09,03,4.80
2015,09,12,09,04,3.20
2015,09,12,09,05,1.60
2015,09,12,09,07,3.20
2015,09,12,09,08,3.20
2015,09,12,09,09,1.60
2015,09,12,09,10,4.80
2015,09,12,09,11,4.80
2015,09,12,09,12,3.20
2015,09,12,09,13,3.20
2015,09,12,09,14,3.20
2015,09,12,09,15,3.20
2015,09,12,09,16,3.20
2015,09,12,09,17,4.80
2015,09,12,09,18,8.10
2015,09,12,09,19,6.40
2015,09,12,09,20,4.80
2015,09,12,09,21,4.80
2015,09,12,09,22,4.80
2015,09,12,09,23,4.80
2015,09,12,09,24,4.80
2015,09,12,09,25,4.80
2015,09,12,09,26,3.20
2015,09,12,09,27,4.80
2015,09,12,09,28,6.40
2015,09,12,09,29,1.60
2015,09,12,09,30,3.20
2015,09,12,09,31,3.20
2015,09,12,09,32,3.20
2015,09,12,09,33,1.60
2015,09,12,09,34,6.40
2015,09,12,09,35,4.80
2015,09,12,09,36,4.80
2015,09,12,09,37,1.60
2015,09,12,09,38,3.20
2015,09,12,09,39,3.20
2015,09,12,09,40,3.20
2015,09,12,09,41,1.60
2015,09,12,09,42,6.40
2015,09,12,09,43,4.80
2015,09,12,09,44,3.20
2015,09,12,09,45,3.20
2015,09,12,09,46,3.20
2015,09,12,09,47,1.60
2015,09,12,09,48,3.20
2015,09,12,09,49,3.20
2015,09,12,09,50,4.80
2015,09,12,09,51,4.80
2015,09,12,09,52,4.80
2015,09,12,09,53,4.80
2015,09,12,09,54,6.40
2015,09,12,09,55,6.40
2015,09,12,09,56,3.20
2015,09,12,09,57,3.20
2015,09,12,09,58,3.20
2015,09,12,09,59,6.40
2015,09,12,10,00,4.80
2015,09,12,10,01,6.40
2015,09,12,10,02,4.80
2015,09,12,10,03,3.20
2015,09,12,10,04,4.80
2015,09,12,10,05,6.40
2015,09,12,10,06,8.10
2015,09,12,10,07,8.10
2015,09,12,10,08,12.90
2015,09,12,10,09,8.10
2015,09,12,10,10,6.40
2015,09,12,10,11,4.80
2015,09,12,10,12,6.40
2015,09,12,10,13,9.60
2015,09,12,10,14,1.60
2015,09,12,10,15,8.10
2015,09,12,10,16,8.10
2015,09,12,10,17,4.80
2015,09,12,10,18,8.10
2015,09,12,10,19,9.60
2015,09,12,10,20,6.40
2015,09,12,10,21,6.40
2015,09,12,10,22,14.50
2015,09,12,10,23,6.40
2015,09,12,10,24,3.20
2015,09,12,10,25,9.60
2015,09,12,10,26,6.40
2015,09,12,10,27,4.80
2015,09,12,10,28,6.40
2015,09,12,10,29,6.40
2015,09,12,10,30,12.90
2015,09,12,10,31,6.40
2015,09,12,10,32,8.10
2015,09,12,10,33,4.80
2015,09,12,10,34,6.40
2015,09,12,10,35,1.60
2015,09,12,10,36,3.20
2015,09,12,10,37,6.40
2015,09,12,10,38,6.40
2015,09,12,10,39,3.20
2015,09,12,10,40,9.60
2015,09,12,10,41,8.10
2015,09,12,10,42,8.10
2015,09,12,10,43,14.50
2015,09,12,10,44,4.80
2015,09,12,10,45,1.60
2015,09,12,10,46,3.20
2015,09,12,10,47,3.20
2015,09,12,10,48,6.40
2015,09,12,10,49,6.40
2015,09,12,10,50,3.20
2015,09,12,10,51,6.40
2015,09,12,10,52,6.40
2015,09,12,10,53,6.40
2015,09,12,10,54,1.60
2015,09,12,10,55,6.40
2015,09,12,10,56,11.30
2015,09,12,10,57,6.40
2015,09,12,10,58,9.60
2015,09,12,10,59,6.40
2015,09,12,11,00,8.10
2015,09,12,11,01,9.60
2015,09,12,11,02,12.90
2015,09,12,11,03,8.10
2015,09,12,11,04,17.70
2015,09,12,11,05,11.30
2015,09,12,11,06,11.30
2015,09,12,11,07,9.60
2015,09,12,11,08,9.60
2015,09,12,11,09,12.90
2015,09,12,11,10,12.90
2015,09,12,11,11,11.30
2015,09,12,11,12,11.30
2015,09,12,11,13,9.60
2015,09,12,11,14,9.60
2015,09,12,11,15,4.80
2015,09,12,11,16,6.40
2015,09,12,11,17,3.20
2015,09,12,11,18,4.80
2015,09,12,11,19,4.80
2015,09,12,11,20,4.80
2015,09,12,11,21,6.40
2015,09,12,11,22,12.90
2015,09,12,11,23,6.40
2015,09,12,11,24,9.60
2015,09,12,11,25,11.30
2015,09,12,11,26,4.80
2015,09,12,11,27,4.80
2015,09,12,11,28,1.60
2015,09,12,11,29,3.20
2015,09,12,11,30,11.30
2015,09,12,11,31,1.60
2015,09,12,11,32,4.80
2015,09,12,11,33,14.50
2015,09,12,11,34,1.60
2015,09,12,11,35,3.20
2015,09,12,11,36,3.20
2015,09,12,11,37,4.80
2015,09,12,11,38,3.20
2015,09,12,11,39,3.20
2015,09,12,11,40,3.20
2015,09,12,11,41,6.40
2015,09,12,11,42,4.80
2015,09,12,11,43,6.40
2015,09,12,11,44,6.40
2015,09,12,11,45,6.40
2015,09,12,11,46,8.10
2015,09,12,11,47,11.30
2015,09,12,11,48,9.60
2015,09,12,11,49,11.30
2015,09,12,11,50,4.80
2015,09,12,11,51,3.20
2015,09,12,11,52,6.40
2015,09,12,11,53,11.30
2015,09,12,11,54,12.90
2015,09,12,11,55,16.10
2015,09,12,11,56,9.60
2015,09,12,11,57,4.80
2015,09,12,11,58,9.60
2015,09,12,11,59,6.40
2015,09,12,12,00,1.60
2015,09,12,12,01,3.20
2015,09,12,12,02,6.40
2015,09,12,12,03,9.60
2015,09,12,12,04,6.40
2015,09,12,12,05,6.40
2015,09,12,12,06,11.30
2015,09,12,12,07,9.60
2015,09,12,12,08,9.60
2015,09,12,12,09,11.30
2015,09,12,12,10,11.30
2015,09,12,12,11,6.40
2015,09,12,12,12,6.40
2015,09,12,12,13,4.80
2015,09,12,12,14,3.20
2015,09,12,12,15,6.40
2015,09,12,12,16,6.40
2015,09,12,12,17,3.20
2015,09,12,12,18,4.80
2015,09,12,12,19,6.40
2015,09,12,12,20,6.40
2015,09,12,12,21,4.80
2015,09,12,12,22,8.10
2015,09,12,12,23,4.80
2015,09,12,12,24,4.80
2015,09,12,12,25,11.30
2015,09,12,12,26,9.60
2015,09,12,12,27,8.10
2015,09,12,12,28,8.10
2015,09,12,12,29,9.60
2015,09,12,12,30,8.10
2015,09,12,12,31,16.10
2015,09,12,12,32,9.60
2015,09,12,12,33,9.60
2015,09,12,12,34,12.90
2015,09,12,12,35,8.10
2015,09,12,12,36,6.40
2015,09,12,12,37,6.40
2015,09,12,12,38,4.80
2015,09,12,12,39,11.30
2015,09,12,12,40,8.10
2015,09,12,12,41,4.80
2015,09,12,12,42,4.80
2015,09,12,12,43,4.80
2015,09,12,12,44,11.30
2015,09,12,12,45,6.40
2015,09,12,12,46,11.30
2015,09,12,12,47,9.60
2015,09,12,12,48,8.10
2015,09,12,12,49,4.80
2015,09,12,12,50,8.10
2015,09,12,12,51,8.10
2015,09,12,12,52,4.80
2015,09,12,12,53,9.60
2015,09,12,12,54,9.60
2015,09,12,12,55,9.60
2015,09,12,12,56,6.40
2015,09,12,12,57,12.90
2015,09,12,12,58,8.10
2015,09,12,12,59,12.90
2015,09,12,13,00,12.90
2015,09,12,13,01,9.60
2015,09,12,13,02,17.70
2015,09,12,13,03,14.50
2015,09,12,13,04,3.20
2015,09,12,13,05,6.40
2015,09,12,13,06,6.40
2015,09,12,13,07,6.40
2015,09,12,13,08,3.20
2015,09,12,13,09,3.20
2015,09,12,13,10,3.20
2015,09,12,13,11,6.40
2015,09,12,13,12,3.20
2015,09,12,13,13,4.80
2015,09,12,13,14,4.80
2015,09,12,13,15,6.40
2015,09,12,13,16,12.90
2015,09,12,13,17,11.30
2015,09,12,13,18,3.20
2015,09,12,13,19,4.80
2015,09,12,13,20,4.80
2015,09,12,13,21,6.40
2015,09,12,13,22,6.40
2015,09,12,13,23,8.10
2015,09,12,13,24,9.60
2015,09,12,13,25,8.10
2015,09,12,13,26,8.10
2015,09,12,13,27,17.70
2015,09,12,13,28,14.50
2015,09,12,13,29,6.40
2015,09,12,13,30,9.60
2015,09,12,13,31,14.50
2015,09,12,13,32,11.30
2015,09,12,13,33,11.30
2015,09,12,13,34,11.30
2015,09,12,13,35,11.30
2015,09,12,13,36,4.80
2015,09,12,13,37,4.80
2015,09,12,13,38,4.80
2015,09,12,13,39,4.80
2015,09,12,13,40,6.40
2015,09,12,13,41,4.80
2015,09,12,13,42,4.80
2015,09,12,13,43,8.10
2015,09,12,13,44,9.60
2015,09,12,13,45,9.60
2015,09,12,13,46,12.90
2015,09,12,13,47,11.30
2015,09,12,13,48,9.60
2015,09,12,13,49,6.40
2015,09,12,13,50,6.40
2015,09,12,13,51,12.90
2015,09,12,13,52,9.60
2015,09,12,13,53,9.60
2015,09,12,13,54,8.10
2015,09,12,13,55,6.40
2015,09,12,13,56,3.20
2015,09,12,13,57,3.20
2015,09,12,13,58,8.10
2015,09,12,13,59,4.80
2015,09,12,14,00,6.40
2015,09,12,14,01,6.40
2015,09,12,14,02,1.60
2015,09,12,14,03,6.40
2015,09,12,14,04,3.20
2015,09,12,14,05,4.80
2015,09,12,14,06,3.20
2015,09,12,14,07,3.20
2015,09,12,14,08,3.20
2015,09,12,14,09,4.80
2015,09,12,14,10,6.40
2015,09,12,14,11,3.20
2015,09,12,14,12,4.80
2015,09,12,14,13,11.30
2015,09,12,14,14,4.80
2015,09,12,14,15,4.80
2015,09,12,14,16,3.20
2015,09,12,14,17,4.80
2015,09,12,14,18,14.50
2015,09,12,14,19,11.30
2015,09,12,14,20,14.50
2015,09,12,14,21,11.30
2015,09,12,14,22,6.40
2015,09,12,14,23,8.10
2015,09,12,14,24,4.80
2015,09,12,14,25,11.30
2015,09,12,14,26,9.60
2015,09,12,14,27,8.10
2015,09,12,14,28,11.30
2015,09,12,14,29,11.30
2015,09,12,14,30,27.40
2015,09,12,14,31,19.30
2015,09,12,14,32,20.90
2015,09,12,14,33,22.50
2015,09,12,14,34,17.70
2015,09,12,14,35,9.60
2015,09,12,14,36,24.20
2015,09,12,14,37,16.10
2015,09,12,14,38,20.90
2015,09,12,14,39,19.30
2015,09,12,14,40,11.30
2015,09,12,14,41,20.90
2015,09,12,14,42,24.20
2015,09,12,14,43,11.30
2015,09,12,14,44,12.90
2015,09,12,14,45,17.70
2015,09,12,14,46,12.90
2015,09,12,14,47,12.90
2015,09,12,14,48,6.40
2015,09,12,14,49,4.80
2015,09,12,14,50,11.30
2015,09,12,14,51,11.30
2015,09,12,14,52,8.10
2015,09,12,14,53,14.50
2015,09,12,14,54,8.10
2015,09,12,14,55,6.40
2015,09,12,14,56,4.80
2015,09,12,14,57,11.30
2015,09,12,14,58,11.30
2015,09,12,14,59,9.60
2015,09,12,15,00,8.10
2015,09,12,15,01,9.60
2015,09,12,15,02,9.60
2015,09,12,15,03,9.60
2015,09,12,15,04,6.40
2015,09,12,15,05,12.90
2015,09,12,15,06,9.60
2015,09,12,15,07,3.20
2015,09,12,15,08,14.50
2015,09,12,15,09,11.30
2015,09,12,15,10,8.10
2015,09,12,15,11,3.20
2015,09,12,15,12,1.60
2015,09,12,15,13,4.80
2015,09,12,15,14,9.60
2015,09,12,15,15,11.30
2015,09,12,15,16,14.50
2015,09,12,15,17,16.10
2015,09,12,15,18,11.30
2015,09,12,15,19,8.10
2015,09,12,15,20,9.60
2015,09,12,15,21,9.60
2015,09,12,15,22,3.20
2015,09,12,15,23,11.30
2015,09,12,15,24,9.60
2015,09,12,15,25,11.30
2015,09,12,15,26,9.60
2015,09,12,15,27,11.30
2015,09,12,15,28,9.60
2015,09,12,15,29,1.60
2015,09,12,15,30,9.60
2015,09,12,15,31,11.30
2015,09,12,15,32,11.30
2015,09,12,15,33,6.40
2015,09,12,15,34,3.20
2015,09,12,15,35,6.40
2015,09,12,15,36,9.60
2015,09,12,15,37,3.20
2015,09,12,15,38,4.80
2015,09,12,15,39,6.40
2015,09,12,15,40,9.60
2015,09,12,15,41,12.90
2015,09,12,15,42,9.60
2015,09,12,15,43,6.40
2015,09,12,15,44,12.90
2015,09,12,15,45,6.40
2015,09,12,15,46,9.60
2015,09,12,15,47,8.10
2015,09,12,15,48,11.30
2015,09,12,15,49,12.90
2015,09,12,15,50,6.40
2015,09,12,15,51,11.30
2015,09,12,15,52,4.80
2015,09,12,15,53,6.40
2015,09,12,15,54,6.40
2015,09,12,15,55,3.20
2015,09,12,15,56,4.80
2015,09,12,15,57,4.80
2015,09,12,15,58,3.20
2015,09,12,15,59,4.80
2015,09,12,16,00,9.60
2015,09,12,16,01,6.40
2015,09,12,16,02,3.20
2015,09,12,16,03,4.80
2015,09,12,16,04,3.20
2015,09,12,16,05,8.10
2015,09,12,16,06,4.80
2015,09,12,16,07,4.80
2015,09,12,16,08,3.20
2015,09,12,16,09,6.40
2015,09,12,16,10,6.40
2015,09,12,16,11,4.80
2015,09,12,16,12,4.80
2015,09,12,16,13,6.40
2015,09,12,16,14,4.80
2015,09,12,16,15,4.80
2015,09,12,16,16,3.20
2015,09,12,16,17,6.40
2015,09,12,16,18,8.10
2015,09,12,16,19,3.20
2015,09,12,16,20,6.40
2015,09,12,16,21,9.60
2015,09,12,16,22,6.40
2015,09,12,16,23,9.60
2015,09,12,16,24,8.10
2015,09,12,16,25,4.80
2015,09,12,16,26,9.60
2015,09,12,16,27,9.60
2015,09,12,16,28,4.80
2015,09,12,16,29,4.80
2015,09,12,16,30,6.40
2015,09,12,16,31,4.80
2015,09,12,16,32,6.40
2015,09,12,16,33,4.80
2015,09,12,16,34,4.80
2015,09,12,16,35,1.60
2015,09,12,16,36,3.20
2015,09,12,16,37,3.20
2015,09,12,16,38,4.80
2015,09,12,16,39,1.60
2015,09,12,16,40,4.80
2015,09,12,16,41,6.40
2015,09,12,16,42,6.40
2015,09,12,16,43,4.80
2015,09,12,16,44,4.80
2015,09,12,16,45,4.80
2015,09,12,16,46,6.40
2015,09,12,16,47,9.60
2015,09,12,16,48,8.10
2015,09,12,16,49,17.70
2015,09,12,16,50,8.10
2015,09,12,16,51,14.50
2015,09,12,16,52,6.40
2015,09,12,16,53,4.80
2015,09,12,16,54,4.80
2015,09,12,16,55,8.10
2015,09,12,16,56,4.80
2015,09,12,16,57,9.60
2015,09,12,16,58,8.10
2015,09,12,16,59,1.60
2015,09,12,17,00,3.20
2015,09,12,17,01,3.20
2015,09,12,17,02,6.40
2015,09,12,17,03,6.40
2015,09,12,17,04,6.40
2015,09,12,17,05,3.20
2015,09,12,17,06,4.80
2015,09,12,17,07,6.40
2015,09,12,17,08,8.10
2015,09,12,17,09,8.10
2015,09,12,17,10,12.90
2015,09,12,17,11,6.40
2015,09,12,17,12,6.40
2015,09,12,17,13,4.80
2015,09,12,17,14,6.40
2015,09,12,17,15,4.80
2015,09,12,17,16,4.80
2015,09,12,17,17,9.60
2015,09,12,17,18,8.10
2015,09,12,17,19,11.30
2015,09,12,17,20,6.40
2015,09,12,17,21,11.30
2015,09,12,17,22,12.90
2015,09,12,17,23,12.90
2015,09,12,17,24,14.50
2015,09,12,17,25,11.30
2015,09,12,17,26,9.60
2015,09,12,17,27,8.10
2015,09,12,17,28,4.80
2015,09,12,17,29,6.40
2015,09,12,17,30,4.80
2015,09,12,17,31,3.20
2015,09,12,17,32,3.20
2015,09,12,17,33,3.20
2015,09,12,17,34,4.80
2015,09,12,17,35,3.20
2015,09,12,17,36,3.20
2015,09,12,17,37,3.20
2015,09,12,17,38,8.10
2015,09,12,17,39,6.40
2015,09,12,17,40,12.90
2015,09,12,17,41,8.10
2015,09,12,17,42,11.30
2015,09,12,17,43,12.90
2015,09,12,17,44,8.10
2015,09,12,17,45,9.60
2015,09,12,17,46,12.90
2015,09,12,17,47,11.30
2015,09,12,17,48,3.20
2015,09,12,17,49,1.60
2015,09,12,17,50,1.60
2015,09,12,17,51,3.20
2015,09,12,17,52,3.20
2015,09,12,17,53,4.80
2015,09,12,17,54,4.80
2015,09,12,17,55,4.80
2015,09,12,17,56,4.80
2015,09,12,17,57,6.40
2015,09,12,17,58,6.40
2015,09,12,17,59,4.80
2015,09,12,18,00,4.80
2015,09,12,18,01,4.80
2015,09,12,18,02,9.60
2015,09,12,18,03,8.10
2015,09,12,18,04,9.60
2015,09,12,18,05,4.80
2015,09,12,18,06,6.40
2015,09,12,18,07,6.40
2015,09,12,18,08,6.40
2015,09,12,18,09,3.20
2015,09,12,18,10,3.20
2015,09,12,18,11,3.20
2015,09,12,18,12,4.80
2015,09,12,18,13,3.20
2015,09,12,18,14,4.80
2015,09,12,18,15,6.40
2015,09,12,18,16,6.40
2015,09,12,18,17,4.80
2015,09,12,18,18,6.40
2015,09,12,18,19,3.20
2015,09,12,18,20,3.20
2015,09,12,18,21,3.20
2015,09,12,18,22,3.20
2015,09,12,18,23,3.20
2015,09,12,18,24,3.20
2015,09,12,18,25,1.60
2015,09,12,18,26,3.20
2015,09,12,18,27,3.20
2015,09,12,18,28,4.80
2015,09,12,18,29,3.20
2015,09,12,18,30,6.40
2015,09,12,18,31,6.40
2015,09,12,18,32,8.10
2015,09,12,18,33,1.60
2015,09,12,18,34,1.60
2015,09,12,18,35,1.60
2015,09,12,18,36,3.20
2015,09,12,18,37,6.40
2015,09,12,18,38,6.40
2015,09,12,18,39,3.20
2015,09,12,18,40,1.60
2015,09,12,18,41,1.60
2015,09,12,18,42,3.20
2015,09,12,18,43,6.40
2015,09,12,18,44,6.40
2015,09,12,18,45,6.40
2015,09,12,18,46,3.20
2015,09,12,18,47,4.80
2015,09,12,18,48,6.40
2015,09,12,18,49,6.40
2015,09,12,18,50,6.40
2015,09,12,18,51,8.10
2015,09,12,18,52,9.60
2015,09,12,18,53,4.80
2015,09,12,18,54,4.80
2015,09,12,18,55,8.10
2015,09,12,18,56,8.10
2015,09,12,18,57,9.60
2015,09,12,18,58,9.60
2015,09,12,18,59,8.10
2015,09,12,19,00,6.40
2015,09,12,19,01,6.40
2015,09,12,19,02,14.50
2015,09,12,19,03,11.30
2015,09,12,19,04,4.80
2015,09,12,19,05,6.40
2015,09,12,19,06,6.40
2015,09,12,19,07,11.30
2015,09,12,19,08,11.30
2015,09,12,19,09,6.40
2015,09,12,19,10,1.60
2015,09,12,19,11,1.60
2015,09,12,19,12,1.60
2015,09,12,19,13,9.60
2015,09,12,19,14,11.30
2015,09,12,19,15,8.10
2015,09,12,19,16,8.10
2015,09,12,19,17,3.20
2015,09,12,19,18,4.80
2015,09,12,19,19,9.60
2015,09,12,19,20,4.80
2015,09,12,19,21,3.20
2015,09,12,19,22,3.20
2015,09,12,19,23,4.80
2015,09,12,19,24,4.80
2015,09,12,19,25,8.10
2015,09,12,19,26,6.40
2015,09,12,19,27,6.40
2015,09,12,19,28,3.20
2015,09,12,19,29,4.80
2015,09,12,19,30,6.40
2015,09,12,19,31,6.40
2015,09,12,19,32,8.10
2015,09,12,19,33,8.10
2015,09,12,19,34,6.40
2015,09,12,19,35,3.20
2015,09,12,19,36,4.80
2015,09,12,19,37,6.40
2015,09,12,19,38,9.60
2015,09,12,19,39,11.30
2015,09,12,19,40,33.80
2015,09,12,19,41,22.50
2015,09,12,19,42,19.30